When you browse on this site, cookies collect data to enhance your experience and personalize the content and advertising you see.
Visit our Privacy Policy to learn more. By continuing to use the site, you agree to this use of cookies and data.
  • In Austria
  • List of Countries
  • For 7 days
  • Water Temperature
  • Satellite Maps
  • Weather Map
  • News
  • Weather Widgets
  • user-avatar
    Login

    Hourly Weather Vinnitsa

    Today, 21 February, Thursday

    Time Temperature Precipitation Wind Pressure Humidity
    00:00 +1°C° 0 mm 5 mps 735 mmHg 78%
    01:00 +1°C° 0 mm 6 mps 735 mmHg 78%
    02:00 +1°C° 0 mm 6 mps 735 mmHg 78%
    03:00 -1°C° 0 mm 6 mps 735 mmHg 79%
    04:00 -2°C° 0 mm 6 mps 735 mmHg 80%
    05:00 -2°C° 0 mm 6 mps 736 mmHg 81%
    06:00 -2°C° 0 mm 6 mps 736 mmHg 80%
    07:00 -3°C° 0 mm 6 mps 736 mmHg 79%
    08:00 -3°C° 0 mm 7 mps 736 mmHg 77%
    09:00 -2°C° 0 mm 7 mps 737 mmHg 69%
    10:00 -1°C° 0 mm 7 mps 737 mmHg 61%
    11:00 -1°C° 0 mm 8 mps 737 mmHg 52%
    12:00 0°C° 0 mm 8 mps 737 mmHg 52%
    13:00 +1°C° 0 mm 8 mps 737 mmHg 51%
    14:00 +1°C° 0 mm 8 mps 737 mmHg 50%
    15:00 +2°C° 0 mm 7 mps 737 mmHg 54%
    16:00 +1°C° 0 mm 6 mps 737 mmHg 59%
    17:00 +1°C° 0 mm 5 mps 737 mmHg 64%
    18:00 +1°C° 0 mm 5 mps 737 mmHg 69%
    19:00 0°C° 0 mm 4 mps 737 mmHg 74%
    20:00 +1°C° 0 mm 3 mps 737 mmHg 79%
    21:00 +1°C° 0.1 mm 2 mps 737 mmHg 81%
    22:00 +1°C° 0.1 mm 2 mps 737 mmHg 82%
    23:00 +2°C° 0.1 mm 1 mps 737 mmHg 84%

    Tomorrow, 22 February, Friday

    Time Temperature Precipitation Wind Pressure Humidity
    00:00 +1°C° 0.3 mm 2 mps 737 mmHg 84%
    01:00 -1°C° 0.3 mm 2 mps 737 mmHg 84%
    02:00 -2°C° 0.3 mm 2 mps 736 mmHg 84%
    03:00 -2°C° 0.6 mm 3 mps 736 mmHg 87%
    04:00 -4°C° 0.6 mm 3 mps 736 mmHg 89%
    05:00 -4°C° 0.6 mm 3 mps 735 mmHg 92%
    06:00 -5°C° 0.6 mm 4 mps 735 mmHg 91%
    07:00 -6°C° 0.6 mm 5 mps 736 mmHg 90%
    08:00 -6°C° 0.6 mm 5 mps 736 mmHg 89%
    09:00 -7°C° 0.4 mm 5 mps 737 mmHg 87%
    10:00 -8°C° 0.4 mm 6 mps 737 mmHg 85%
    11:00 -8°C° 0.4 mm 6 mps 738 mmHg 83%
    12:00 -8°C° 0 mm 6 mps 739 mmHg 76%
    13:00 -8°C° 0 mm 6 mps 739 mmHg 69%
    14:00 -8°C° 0 mm 7 mps 740 mmHg 63%
    15:00 -9°C° 0 mm 6 mps 740 mmHg 63%
    16:00 -9°C° 0 mm 6 mps 741 mmHg 63%
    17:00 -10°C° 0 mm 5 mps 741 mmHg 63%
    18:00 -10°C° 0 mm 5 mps 742 mmHg 65%
    19:00 -11°C° 0 mm 5 mps 742 mmHg 66%
    20:00 -11°C° 0 mm 5 mps 743 mmHg 68%
    21:00 -11°C° 0 mm 6 mps 743 mmHg 68%
    22:00 -11°C° 0 mm 6 mps 743 mmHg 69%
    23:00 -11°C° 0 mm 6 mps 744 mmHg 69%

    Day after tomorrow, 23 February, Saturday

    Time Temperature Precipitation Wind Pressure Humidity
    00:00 -11°C° 0 mm 6 mps 744 mmHg 69%
    01:00 -11°C° 0 mm 6 mps 744 mmHg 68%
    02:00 -11°C° 0 mm 6 mps 745 mmHg 68%
    03:00 -12°C° 0 mm 6 mps 745 mmHg 69%
    04:00 -12°C° 0 mm 6 mps 745 mmHg 70%
    05:00 -12°C° 0 mm 5 mps 745 mmHg 71%
    06:00 -13°C° 0 mm 5 mps 746 mmHg 71%
    07:00 -13°C° 0 mm 5 mps 746 mmHg 72%
    08:00 -14°C° 0 mm 6 mps 747 mmHg 72%
    09:00 -12°C° 0 mm 6 mps 747 mmHg 71%
    10:00 -12°C° 0 mm 6 mps 747 mmHg 69%
    11:00 -11°C° 0 mm 6 mps 748 mmHg 68%
    12:00 -11°C° 0 mm 6 mps 748 mmHg 66%
    13:00 -10°C° 0 mm 6 mps 748 mmHg 65%
    14:00 -10°C° 0 mm 6 mps 748 mmHg 64%
    15:00 -10°C° 0 mm 5 mps 748 mmHg 65%
    16:00 -10°C° 0 mm 5 mps 748 mmHg 65%
    17:00 -9°C° 0 mm 4 mps 748 mmHg 66%
    18:00 -10°C° 0 mm 4 mps 748 mmHg 67%
    19:00 -10°C° 0 mm 4 mps 748 mmHg 69%
    20:00 -10°C° 0 mm 3 mps 749 mmHg 70%
    21:00 -10°C° 0 mm 3 mps 749 mmHg 71%
    22:00 -10°C° 0 mm 3 mps 749 mmHg 72%
    23:00 -10°C° 0 mm 3 mps 749 mmHg 73%

    24 February, Sunday

    Time Temperature Precipitation Wind Pressure Humidity
    00:00 -10°C° 0 mm 3 mps 749 mmHg 74%
    01:00 -12°C° 0 mm 3 mps 748 mmHg 76%
    02:00 -12°C° 0 mm 3 mps 748 mmHg 77%
    03:00 -12°C° 0 mm 3 mps 748 mmHg 79%
    04:00 -12°C° 0 mm 3 mps 748 mmHg 80%
    05:00 -12°C° 0 mm 3 mps 748 mmHg 82%
    06:00 -12°C° 0 mm 3 mps 748 mmHg 81%
    07:00 -12°C° 0 mm 3 mps 748 mmHg 81%
    08:00 -12°C° 0 mm 3 mps 748 mmHg 81%
    09:00 -10°C° 0 mm 3 mps 748 mmHg 75%
    10:00 -8°C° 0 mm 3 mps 748 mmHg 70%
    11:00 -7°C° 0 mm 3 mps 748 mmHg 64%
    12:00 -8°C° 0 mm 4 mps 747 mmHg 63%
    13:00 -7°C° 0 mm 4 mps 747 mmHg 61%
    14:00 -5°C° 0 mm 4 mps 746 mmHg 59%
    15:00 -5°C° 0 mm 4 mps 746 mmHg 64%
    16:00 -7°C° 0 mm 4 mps 746 mmHg 70%
    17:00 -6°C° 0 mm 3 mps 745 mmHg 76%
    18:00 -6°C° 0 mm 3 mps 745 mmHg 79%
    19:00 -6°C° 0 mm 3 mps 745 mmHg 82%
    20:00 -6°C° 0 mm 3 mps 745 mmHg 86%
    21:00 -6°C° 0.1 mm 3 mps 744 mmHg 86%
    22:00 -6°C° 0.1 mm 3 mps 744 mmHg 86%
    23:00 -6°C° 0.1 mm 3 mps 743 mmHg 87%

    25 February, Monday

    Time Temperature Precipitation Wind Pressure Humidity
    00:00 -6°C° 0 mm 3 mps 743 mmHg 87%
    01:00 -5°C° 0 mm 2 mps 743 mmHg 86%
    02:00 -5°C° 0 mm 2 mps 742 mmHg 86%
    03:00 -5°C° 0 mm 2 mps 742 mmHg 87%
    04:00 -5°C° 0 mm 2 mps 741 mmHg 88%
    05:00 -5°C° 0 mm 2 mps 740 mmHg 88%
    06:00 -5°C° 0 mm 2 mps 740 mmHg 87%
    07:00 -4°C° 0 mm 2 mps 740 mmHg 87%
    08:00 -5°C° 0 mm 3 mps 740 mmHg 86%
    09:00 -5°C° 0 mm 3 mps 739 mmHg 85%
    10:00 -4°C° 0 mm 3 mps 739 mmHg 85%
    11:00 -2°C° 0 mm 3 mps 739 mmHg 84%
    12:00 -2°C° 0.4 mm 3 mps 739 mmHg 87%
    13:00 -2°C° 0.4 mm 3 mps 738 mmHg 89%
    14:00 -2°C° 0.4 mm 3 mps 738 mmHg 91%
    15:00 -3°C° 0.2 mm 4 mps 738 mmHg 91%
    16:00 -2°C° 0.2 mm 5 mps 738 mmHg 90%
    17:00 -3°C° 0.2 mm 6 mps 738 mmHg 90%
    18:00 -3°C° 0.1 mm 6 mps 738 mmHg 88%
    19:00 -3°C° 0.1 mm 7 mps 738 mmHg 85%
    20:00 -3°C° 0.1 mm 7 mps 739 mmHg 82%
    21:00 -3°C° 0 mm 7 mps 739 mmHg 82%
    22:00 -4°C° 0 mm 7 mps 739 mmHg 82%
    23:00 -4°C° 0 mm 7 mps 739 mmHg 82%

    26 February, Tuesday

    Time Temperature Precipitation Wind Pressure Humidity
    00:00 -5°C° 0 mm 6 mps 739 mmHg 84%
    01:00 -5°C° 0 mm 6 mps 739 mmHg 86%
    02:00 -5°C° 0 mm 6 mps 739 mmHg 88%
    03:00 -5°C° 0.1 mm 5 mps 739 mmHg 89%
    04:00 -5°C° 0.1 mm 5 mps 738 mmHg 90%
    05:00 -4°C° 0.1 mm 5 mps 738 mmHg 91%
    06:00 -4°C° 0.1 mm 5 mps 738 mmHg 90%
    07:00 -4°C° 0.1 mm 6 mps 737 mmHg 89%
    08:00 -4°C° 0.1 mm 6 mps 737 mmHg 88%
    09:00 -3°C° 0 mm 6 mps 737 mmHg 88%
    10:00 -3°C° 0 mm 6 mps 736 mmHg 88%
    11:00 -3°C° 0 mm 6 mps 736 mmHg 87%
    12:00 -3°C° 0 mm 6 mps 735 mmHg 87%
    13:00 -3°C° 0 mm 6 mps 735 mmHg 87%
    14:00 -3°C° 0 mm 6 mps 735 mmHg 87%
    15:00 -3°C° 0 mm 6 mps 734 mmHg 87%
    16:00 -2°C° 0 mm 5 mps 734 mmHg 87%
    17:00 -2°C° 0 mm 5 mps 733 mmHg 87%
    18:00 -3°C° 0 mm 6 mps 733 mmHg 87%
    19:00 -3°C° 0 mm 6 mps 732 mmHg 88%
    20:00 -3°C° 0 mm 6 mps 732 mmHg 89%
    21:00 -3°C° 0 mm 7 mps 731 mmHg 89%
    22:00 -2°C° 0 mm 7 mps 730 mmHg 89%
    23:00 -2°C° 0 mm 7 mps 729 mmHg 89%
    Show more